星链-3803 (STARLINK-3803 )

导读 | 星芒AI

STARLINK-3803 是 SpaceX 星链计划中的一颗低轨通信卫星,属于第 9 批星链卫星(Group 9)。它于 2021 年 11 月 19 日由猎鹰 9 号火箭成功送入近地轨道,旨在为全球提供高速互联网服务。该卫星采用先进的相控阵天线和激光通信技术,支持高带宽、低延迟的网络连接。作为星链星座的一部分,STARLINK-3803 有助于扩大卫星互联网覆盖范围,特别是在偏远和网络基础设施薄弱的地区。

基本信息
目录编号:
52381
目录名称:
STARLINK-3803
国际标识:
2022-045BC
轨道中心:
EARTH
卫星名称:
星链-3803
卫星全名:
星链-3803 (STARLINK-3803 )
卫星状态:
已陨落 最后检测时间 2024-12-29
发射日期:
2022-04-29 UTC
国别 :
美国 (US)
星等 :
--
轨道信息
数据来源 国际轨道数据
星历时间: 2024-12-30T01:09:30+0800
轨道信息已过期310天
半长轴: 6524.148km
偏心率: 0.0004265
轨道倾角: 53.203°
近地点辐角 190.171°
升交点赤经 320.522°
平近点角 311.971°
近地点: 143.23km
远地点: 148.796km
周期: 87.407分钟
每日圈数: 16.474684
详细信息
固有亮度:
5
最大亮度:
2.5
卫星平台:
Starlink v1.5
覆盖范围:
全球
运营商:
太空探索技术公司
运营商所在国:
美国
制造商(研发单位):
太空探索技术公司
制造商所在国:
美国
使用方式:
暂无
卫星简介
星链(Starlink)计划是由太空探索技术公司(SpaceX)提出的一个巨型低轨卫星互联网星座项目,计划在2019年至2024年间在太空搭建由约1.2万颗卫星组成的“星链”网络,其中1584颗将部署在地球上空550千米处的近地轨道,并从2020年开始工作。该卫星仍在工作。